#timestamp,LO_Frequency,Hit,StdDev 
1593259215.6,286046999.1,P
1593259235.4,286046996.0,N
1593259255.3,286046997.1,N
1593259275.1,286046995.0,Y
1593259295.8,286047001.2,P
1593259315.7,286046998.2,N
1593259335.5,286047002.2,N
1593259355.4,286047002.2,N
1593259375.2,286047001.6,N
1593259395.0,286047005.6,N
1593259395.9,286047005.6,N
1593259415.8,286047005.5,N
1593259435.6,286047004.5,N
1593259455.5,286047006.3,N
1593259475.3,286047005.8,N
1593259495.1,286047005.6,N
1593259515.9,286047006.2,N
1593259535.7,286047007.6,N
1593259555.5,286047003.1,N
1593259575.4,286047004.4,N
1593259595.2,286046998.5,N
1593259615.1,286047004.3,N
1593259616.0,286047004.3,N
1593259635.8,286047001.5,N
1593259655.6,286047002.8,N
1593259675.5,286047002.5,N
1593259695.3,286047003.4,N
1593259715.1,286047010.8,Y
1593259735.9,286047003.5,P
1593259755.7,286046995.6,P
1593259775.6,286046998.2,N
1593259795.4,286046995.5,N
1593259815.2,286046997.1,N
1593259835.1,286046998.8,N
1593259836.0,286046998.8,N
1593259855.8,286046999.3,N
1593259875.7,286046995.0,N
1593259895.5,286046998.7,N
1593259915.3,286046998.8,N
1593259935.2,286046996.9,N
1593259955.0,286046998.2,N
1593259955.9,286046998.2,N
1593259975.7,286046997.8,N
1593259995.6,286046999.0,N
1593260015.4,286046994.0,N
1593260035.3,286046995.7,N
1593260055.1,286046996.4,N
1593260056.0,286046996.4,N
1593260075.8,286046997.6,N
1593260095.7,286046998.4,N
1593260115.5,286046999.0,N
1593260135.4,286046998.4,N
1593260155.2,286046998.7,N
1593260175.0,286046999.0,N
1593260175.9,286046999.0,N
1593260195.8,286046997.7,N
1593260215.6,286046997.6,N
1593260235.5,286046997.6,N
1593260255.3,286046994.9,N
1593260275.1,286046997.6,N
1593260295.9,286046997.4,N
1593260315.7,286046996.9,N
1593260335.5,286046996.6,N
1593260355.4,286046998.8,N
1593260375.2,286047001.2,N
1593260395.1,286046994.9,Y
1593260396.0,286046994.9,P
1593260415.8,286046997.2,N
1593260435.7,286046995.4,P
1593260455.5,286046995.2,Y
1593260475.3,286046998.3,P
1593260495.2,286046998.2,N
1593260515.0,286046998.2,N
1593260515.9,286046998.2,N
1593260535.7,286046998.9,N
1593260555.6,286046998.7,N
1593260575.4,286047002.0,N
1593260595.3,286047003.8,N
1593260615.1,286047005.5,N
1593260635.9,286047009.1,Y
1593260655.7,286047010.6,P
1593260675.5,286046984.3,N
1593260695.4,286046993.2,N
1593260715.2,286046997.4,N
1593260735.0,286047000.9,N
1593260735.9,286047000.9,N
1593260755.8,286047002.9,N
1593260775.6,286047008.4,N
1593260795.5,286047007.7,N
1593260815.3,286047010.8,N
1593260835.1,286047009.8,N
1593260855.9,286047011.9,N
1593260875.7,286047009.8,N
1593260895.6,286047012.1,N
1593260915.4,286047008.3,N
1593260935.2,286047008.4,N
1593260955.1,286047006.5,N
1593260956.0,286047006.5,N
1593260975.8,286047009.6,N
1593260995.6,286047011.7,N
1593261015.5,286047006.2,N
1593261035.3,286047009.0,N
1593261055.2,286047013.9,N
1593261075.9,286047010.2,N
1593261095.7,286047008.1,N
1593261115.6,286047003.8,N
1593261135.4,286046999.4,N
1593261155.3,286047002.5,N
1593261175.1,286046999.8,N
1593261176.0,286046999.8,N
1593261195.8,286047001.1,N
1593261215.7,286046998.6,N
1593261235.5,286046998.2,N
1593261255.3,286047007.6,N
1593261275.2,286047009.2,N
1593261295.0,286047010.7,N
1593261295.9,286047010.7,N
1593261315.8,286047004.7,N
1593261335.6,286047000.1,N
1593261355.4,286047000.0,N
1593261375.3,286047001.0,N
1593261395.1,286047001.0,N
1593261415.9,286047002.5,N
1593261435.7,286046998.4,N
1593261455.5,286047000.7,N
1593261475.4,286047001.5,N
1593261495.2,286047000.2,N
1593261515.0,286047003.6,N
1593261516.0,286047003.6,N
1593261535.8,286047000.8,N
1593261555.6,286047000.7,N
1593261575.5,286046996.5,N
1593261595.3,286047006.1,N
1593261615.1,286047010.4,N
1593261635.9,286047007.8,N
1593261655.7,286047005.6,N
1593261675.6,286047004.4,N
1593261695.4,286047001.9,N
1593261715.2,286047001.5,N
1593261735.1,286047000.8,N
1593261736.0,286047000.8,N
1593261755.8,286046999.6,N
1593261775.7,286046996.4,N
1593261795.5,286047005.4,N
1593261815.3,286046997.1,N
1593261835.2,286046995.7,N
1593261855.0,286046995.9,N
1593261855.9,286046995.9,N
1593261875.7,286046995.0,N
1593261895.6,286046997.2,N
1593261915.4,286046995.4,N
1593261935.3,286046992.3,N
1593261955.1,286046996.1,N
1593261956.0,286046996.1,N
1593261975.8,286047001.6,N
1593261995.7,286047002.9,N
1593262015.5,286047012.0,N
1593262035.4,286047007.0,N
1593262055.2,286047005.4,N
1593262075.0,286047004.4,N
1593262075.9,286047004.4,N
1593262095.8,286047003.6,N
1593262115.6,286047003.9,N
1593262135.5,286047002.4,N
1593262155.3,286046999.2,N
1593262175.1,286046998.0,N
1593262195.9,286046998.6,N
1593262215.7,286046996.6,N
1593262235.5,286046996.6,N
1593262255.4,286046997.2,N
1593262275.2,286046998.0,N
1593262295.1,286046997.4,N
1593262296.0,286046997.4,N
1593262315.8,286046997.4,N
1593262335.6,286046995.5,N
1593262355.5,286046994.3,N
1593262375.3,286046996.1,N
1593262395.2,286046992.7,N
1593262415.9,286046996.8,N
1593262435.7,286046998.4,N
1593262455.6,286046999.6,N
1593262475.4,286047005.7,N
1593262495.3,286046995.6,N
1593262515.1,286046999.4,N
1593262516.0,286046999.4,N
1593262535.8,286046999.1,N
1593262555.7,286046998.5,N
1593262575.5,286047000.2,N
1593262595.4,286047000.3,N
1593262615.2,286047002.7,N
1593262635.0,286047001.4,N
1593262635.9,286047001.4,N
1593262655.8,286047002.3,N
1593262675.6,286047000.0,N
1593262695.4,286047002.7,N
1593262715.3,286047002.6,N
1593262735.1,286047002.0,N
1593262755.9,286047001.0,N
1593262775.7,286046999.3,N
1593262795.5,286046998.5,N
